This is the latest recevied weather packets stored in our database for station/object OM1ATS-6. If no packets are shown the sender has not sent any weather packets the latest 10 day(s).
| Time | Temp. | Humidity | Pressure | Rain* | Wind** | Luminosity | Snow |
|---|---|---|---|---|---|---|---|
| 1777810029 | 25° C | 32% | 1021.1 hPa | - | - | - | - |
| 1777809730 | 25° C | 32% | 1021.1 hPa | - | - | - | - |
| 1777809430 | 25° C | 32% | 1021 hPa | - | - | - | - |
| 1777809129 | 25.56° C | 32% | 1021 hPa | - | - | - | - |
| 1777808830 | 25° C | 33% | 1021 hPa | - | - | - | - |
| 1777808530 | 24.44° C | 33% | 1021 hPa | - | - | - | - |
| 1777808229 | 24.44° C | 33% | 1021.3 hPa | - | - | - | - |
| 1777807929 | 24.44° C | 33% | 1021.3 hPa | - | - | - | - |
| 1777807629 | 24.44° C | 33% | 1021.3 hPa | - | - | - | - |
| 1777807330 | 24.44° C | 34% | 1021.3 hPa | - | - | - | - |
| 1777807029 | 24.44° C | 34% | 1021.4 hPa | - | - | - | - |
| 1777806729 | 24.44° C | 34% | 1021.4 hPa | - | - | - | - |
| 1777806429 | 23.89° C | 33% | 1021.4 hPa | - | - | - | - |
| 1777806130 | 24.44° C | 34% | 1021.4 hPa | - | - | - | - |
| 1777805829 | 24.44° C | 34% | 1021.7 hPa | - | - | - | - |
| 1777805530 | 23.89° C | 35% | 1021.7 hPa | - | - | - | - |
| 1777805229 | 23.89° C | 34% | 1021.7 hPa | - | - | - | - |
| 1777804930 | 23.33° C | 34% | 1021.7 hPa | - | - | - | - |
| 1777804629 | 23.33° C | 34% | 1021.8 hPa | - | - | - | - |
| 1777804330 | 23.33° C | 34% | 1021.8 hPa | - | - | - | - |
| 1777804029 | 23.33° C | 34% | 1021.8 hPa | - | - | - | - |
| 1777803730 | 23.33° C | 35% | 1021.8 hPa | - | - | - | - |
| 1777803429 | 23.33° C | 35% | 1022 hPa | - | - | - | - |
| 1777803129 | 23.33° C | 35% | 1022 hPa | - | - | - | - |
| 1777802830 | 23.33° C | 35% | 1022 hPa | - | - | - | - |
* Rain since midnight (hover to see other rain measurements)
** Current wind speed in m/s (hover to see current wind gust speed)